Погода в Ленинке

Россия / Тюменская область     56°03′11″N   70°24′58″E
темп.,
°C
ветер,
м/с
пор.,
м/с
влажн.,
%
обл.,
%
осадки,
мм/ч
давл.,
гПа
погр.,
м
13 мая, чт
чт1323:00+10ссз3847100 0.0 1024155
02:00+11ссз2243100 0.0 102429
05:00+11з354992 0.0 102498
08:00+14з4851100 0.0 1022344
11:00+22сз8134476 0.0 10202061
14:00+21ссз5852100 0.0 10201544
17:00+15с41189100 1.2 1021435
20:00+14сз378930 0.6 1022130
14 мая, пт
пт1423:00+12с488138 0.6 1023142
02:00+10св348910 0.0 102548
05:00+8всв34845 0.0 102764
08:00+13всв22625 0.0 1028425
11:00+18ссз2240100 0.0 1028984
14:00+21з2331100 0.0 10261194
17:00+23з353025 0.0 10251360
20:00+19ююз46495 0.0 102475
15 мая, сб
сб1523:00+17ююз6154527 0.0 1023268
02:00+18юз717437 0.0 1021367
05:00+17зюз613565 0.1 1021257
08:00+22з69485 0.0 1021425
11:00+27з573444 0.0 10201199
14:00+29з782615 0.0 10183014
17:00+29зсз57312 0.0 10172688
20:00+23з410455 0.0 1016165
16 мая, вс
вс1623:00+17ссв4107199 0.7 1017250
02:00+15з238316 1.8 101740
05:00+15зсз338212 1.8 101765
08:00+20ссз46615 0.0 1018496
11:00+25сз34435 0.0 10181213
14:00+27зсз46335 0.0 10171916
17:00+28зсз58349 0.0 10162016
20:00+23зюз41051100 0.0 1015167
17 мая, пн
пн1723:00+20зюз4104957 0.0 1014148
02:00+19з4134910 0.0 1014216
05:00+17з49575 0.0 1014137
08:00+24з59435 0.0 1014377
11:00+28зсз710300 0.0 10142166
14:00+30зсз79255 0.0 10133256
17:00+29з57275 0.0 10112963
20:00+22ссз4651100 0.0 101199